Terminal Aerodrome Forecast
Issued by NWS Miami, FL

Home | Current Version | Previous Version | Text Only | Print | Product List | Glossary On
Versions: 1 2 3 4 5 6 7 8 9 10 11 12 13 14 15 16 17 18 19 20 21 22 23 24 25 26 27 28 29 30 31 32 33 34 35 36 37 38 39 40 41 42 43 44 45 46 47 48 49 50
000
FTUS42 KMFL 210540
TAFPBI
TAF
KPBI 210540Z 2106/2206 00000KT P6SM FEW012 BKN190
     FM211100 25005KT P6SM VCSH SCT030 BKN100 BKN200
     FM211600 13008KT P6SM VCTS SCT030CB BKN050
     FM220100 08006KT P6SM OVC040=

USA.gov is the U.S. government's official web portal to all federal, state and local government web resources and services.